,,PA_Meas_PMT16A,,PR_Meas_QMR101_102,,RH_Meas_QMH101,,SR_Meas_QMS101,,TA_Meas_QMH101,,GenWind,,GenWind,
time,status,PA,status,PR,status,RH,status,SR,status,TA,status,DirAvg,status,SpdAvg,
2009-12-07, 00:00:05,VALID,918.192,VALID,0,VALID,97.3358,VALID,0,VALID,19.4868,VALID,113,VALID,0.0160156,
2009-12-07, 00:01:05,VALID,918.177,VALID,0,VALID,97.2977,VALID,0,VALID,19.4673,VALID,113,VALID,0,
2009-12-07, 00:02:05,VALID,918.187,VALID,0,VALID,97.2595,VALID,0,VALID,19.4478,VALID,114,VALID,0,
2009-12-07, 00:03:05,VALID,918.194,VALID,0,VALID,97.2672,VALID,0,VALID,19.4088,VALID,114,VALID,0,
2009-12-07, 00:04:05,VALID,918.163,VALID,0,VALID,97.3281,VALID,0,VALID,19.4088,VALID,114,VALID,0,
2009-12-07, 00:05:05,VALID,918.145,VALID,0,VALID,97.3281,VALID,0,VALID,19.3879,VALID,114,VALID,0,
2009-12-07, 00:06:05,VALID,918.127,VALID,0,VALID,97.3358,VALID,0,VALID,19.4088,VALID,114,VALID,0,
2009-12-07, 00:07:05,VALID,918.13,VALID,0,VALID,97.351,VALID,0,VALID,19.3879,VALID,114,VALID,0,
2009-12-07, 00:08:05,VALID,918.136,VALID,0,VALID,97.2443,VALID,0,VALID,19.3684,VALID,114,VALID,0,
2009-12-07, 00:09:05,VALID,918.113,VALID,0,VALID,97.2214,VALID,0,VALID,19.3503,VALID,113,VALID,0,
2009-12-07, 00:10:05,VALID,918.158,VALID,0,VALID,97.2062,VALID,0,VALID,19.2918,VALID,113,VALID,0,
2009-12-07, 00:11:05,VALID,918.13,VALID,0,VALID,97.1986,VALID,0,VALID,19.2723,VALID,114,VALID,0,
2009-12-07, 00:12:05,VALID,918.166,VALID,0,VALID,97.1909,VALID,0,VALID,19.2319,VALID,113,VALID,0,
2009-12-07, 00:13:05,VALID,918.096,VALID,0,VALID,97.1986,VALID,0,VALID,19.2334,VALID,113,VALID,0,
2009-12-07, 00:14:05,VALID,918.089,VALID,0,VALID,97.1604,VALID,0.107441,VALID,19.1734,VALID,113,VALID,0,
2009-12-07, 00:15:05,VALID,918.093,VALID,0,VALID,97.1833,VALID,0,VALID,19.1539,VALID,114,VALID,0,
2009-12-07, 00:16:05,VALID,918.078,VALID,0,VALID,97.2367,VALID,0,VALID,19.1539,VALID,114,VALID,0,
2009-12-07, 00:17:05,VALID,918.075,VALID,0,VALID,97.2824,VALID,0,VALID,19.1749,VALID,113,VALID,0.23125,
2009-12-07, 00:18:05,VALID,918.07,VALID,0,VALID,97.3358,VALID,0,VALID,19.1734,VALID,114,VALID,0.351563,
2009-12-07, 00:19:05,VALID,918.064,VALID,0,VALID,97.3663,VALID,0,VALID,19.2139,VALID,114,VALID,0.342187,
2009-12-07, 00:20:05,VALID,918.067,VALID,0,VALID,97.3815,VALID,0.107441,VALID,19.2139,VALID,114,VALID,0.463281,
2009-12-07, 00:21:05,VALID,918.042,VALID,0,VALID,97.3281,VALID,0,VALID,19.2124,VALID,114,VALID,0.239844,
2009-12-07, 00:22:05,VALID,918.02,VALID,0,VALID,97.3815,VALID,0,VALID,19.2124,VALID,114,VALID,0,
2009-12-07, 00:23:05,VALID,918,VALID,0,VALID,97.3663,VALID,0,VALID,19.2139,VALID,114,VALID,0,
2009-12-07, 00:24:05,VALID,918.036,VALID,0,VALID,97.3434,VALID,0,VALID,19.2139,VALID,113,VALID,0,
2009-12-07, 00:25:05,VALID,918.03,VALID,0,VALID,97.3358,VALID,0,VALID,19.1929,VALID,114,VALID,0,
2009-12-07, 00:26:05,VALID,918,VALID,0,VALID,97.3434,VALID,0,VALID,19.1749,VALID,114,VALID,0,
2009-12-07, 00:27:05,VALID,918.009,VALID,0,VALID,97.3586,VALID,0,VALID,19.1539,VALID,114,VALID,0,
2009-12-07, 00:28:05,VALID,917.988,VALID,0,VALID,97.3281,VALID,0,VALID,19.1749,VALID,114,VALID,0,
2009-12-07, 00:29:05,VALID,917.997,VALID,0,VALID,97.3663,VALID,0,VALID,19.1554,VALID,114,VALID,0,
2009-12-07, 00:30:05,VALID,918.009,VALID,0,VALID,97.3663,VALID,0,VALID,19.1344,VALID,113,VALID,0,
2009-12-07, 00:31:05,VALID,918.03,VALID,0,VALID,97.3586,VALID,0,VALID,19.1554,VALID,113,VALID,0,
2009-12-07, 00:32:05,VALID,918.016,VALID,0,VALID,97.3358,VALID,0,VALID,19.1149,VALID,114,VALID,0,
2009-12-07, 00:33:05,VALID,918.021,VALID,0,VALID,97.3205,VALID,0.107441,VALID,19.1164,VALID,114,VALID,0,
2009-12-07, 00:34:05,VALID,918.044,VALID,0,VALID,97.3815,VALID,0,VALID,19.0774,VALID,114,VALID,0.684766,
2009-12-07, 00:35:05,VALID,918.06,VALID,0,VALID,97.412,VALID,0,VALID,19.1164,VALID,114,VALID,0.795703,
2009-12-07, 00:36:05,VALID,918.054,VALID,0,VALID,97.4425,VALID,0,VALID,19.1359,VALID,114,VALID,0.769922,
2009-12-07, 00:37:05,VALID,918.05,VALID,0,VALID,97.4501,VALID,0,VALID,19.1359,VALID,114,VALID,0.866406,
2009-12-07, 00:38:05,VALID,918.045,VALID,0,VALID,97.4501,VALID,0,VALID,19.1359,VALID,114,VALID,0.667969,
2009-12-07, 00:39:05,VALID,918.013,VALID,0,VALID,97.5111,VALID,0,VALID,19.1359,VALID,113,VALID,0.691406,
2009-12-07, 00:40:05,VALID,918.02,VALID,0,VALID,97.534,VALID,0,VALID,19.1944,VALID,114,VALID,0.794922,
2009-12-07, 00:41:05,VALID,917.996,VALID,0,VALID,97.4959,VALID,0,VALID,19.1944,VALID,114,VALID,0.720703,
2009-12-07, 00:42:05,VALID,917.984,VALID,0,VALID,97.3053,VALID,0,VALID,19.1359,VALID,114,VALID,0.783203,
2009-12-07, 00:43:05,VALID,917.961,VALID,0,VALID,97.1757,VALID,0,VALID,19.0384,VALID,114,VALID,0.726563,
2009-12-07, 00:44:05,VALID,917.939,VALID,0,VALID,97.1376,VALID,0,VALID,18.9604,VALID,114,VALID,0.916406,
2009-12-07, 00:45:05,VALID,917.945,VALID,0,VALID,97.29,VALID,0,VALID,18.9604,VALID,114,VALID,1.07773,
2009-12-07, 00:46:05,VALID,917.897,VALID,0,VALID,97.3891,VALID,0,VALID,18.9994,VALID,114,VALID,1.10742,
2009-12-07, 00:47:05,VALID,917.906,VALID,0,VALID,97.4425,VALID,0,VALID,19.0189,VALID,114,VALID,0.919922,
2009-12-07, 00:48:05,VALID,917.903,VALID,0,VALID,97.412,VALID,0,VALID,18.9994,VALID,114,VALID,0.737109,
2009-12-07, 00:49:05,VALID,917.884,VALID,0,VALID,97.4501,VALID,0,VALID,18.9994,VALID,114,VALID,0.83125,
2009-12-07, 00:50:05,VALID,917.868,VALID,0,VALID,97.5035,VALID,0,VALID,18.9994,VALID,114,VALID,1.12383,
2009-12-07, 00:51:05,VALID,917.863,VALID,0,VALID,97.5035,VALID,0,VALID,19.0593,VALID,114,VALID,1.07031,
2009-12-07, 00:52:05,VALID,917.854,VALID,0,VALID,97.5187,VALID,0,VALID,19.0579,VALID,114,VALID,1.09648,
2009-12-07, 00:53:05,VALID,917.839,VALID,0,VALID,97.5111,VALID,0,VALID,19.0384,VALID,114,VALID,1.15352,
2009-12-07, 00:54:05,VALID,917.872,VALID,0,VALID,97.5264,VALID,0,VALID,19.0774,VALID,114,VALID,1.04102,
2009-12-07, 00:55:05,VALID,917.877,VALID,0,VALID,97.4882,VALID,0,VALID,19.0579,VALID,114,VALID,0.9625,
2009-12-07, 00:56:05,VALID,917.852,VALID,0,VALID,97.4577,VALID,0,VALID,19.0579,VALID,114,VALID,0.750781,
2009-12-07, 00:57:05,VALID,917.871,VALID,0,VALID,97.595,VALID,0,VALID,19.1164,VALID,113,VALID,0.927734,
2009-12-07, 00:58:05,VALID,917.878,VALID,0,VALID,97.5645,VALID,0,VALID,19.1359,VALID,114,VALID,0.749219,
2009-12-07, 00:59:05,VALID,917.858,VALID,0,VALID,97.5873,VALID,0,VALID,19.1554,VALID,114,VALID,0.558203,
2009-12-07, 01:00:05,VALID,917.836,VALID,0,VALID,97.5569,VALID,0,VALID,19.1749,VALID,114,VALID,0.475391,
2009-12-07, 01:01:05,VALID,917.856,VALID,0,VALID,97.5492,VALID,0,VALID,19.1944,VALID,113,VALID,0.576953,
2009-12-07, 01:02:05,VALID,917.842,VALID,0,VALID,97.5873,VALID,0,VALID,19.2124,VALID,114,VALID,0.844141,
2009-12-07, 01:03:05,VALID,917.839,VALID,0,VALID,97.5569,VALID,0,VALID,19.2334,VALID,114,VALID,0.660547,
2009-12-07, 01:04:05,VALID,917.848,VALID,0,VALID,97.5569,VALID,0,VALID,19.2528,VALID,114,VALID,0.566797,
2009-12-07, 01:05:05,VALID,917.845,VALID,0,VALID,97.5492,VALID,0,VALID,19.2709,VALID,114,VALID,0.438672,
2009-12-07, 01:06:05,VALID,917.811,VALID,0,VALID,97.5645,VALID,0,VALID,19.2918,VALID,114,VALID,0.602734,
2009-12-07, 01:07:05,VALID,917.797,VALID,0,VALID,97.5111,VALID,0,VALID,19.2514,VALID,114,VALID,0.732813,
2009-12-07, 01:08:05,VALID,917.79,VALID,0,VALID,97.4577,VALID,0,VALID,19.2723,VALID,114,VALID,0.803516,
2009-12-07, 01:09:05,VALID,917.785,VALID,0,VALID,97.4882,VALID,0,VALID,19.2723,VALID,114,VALID,0.792578,
2009-12-07, 01:10:05,VALID,917.755,VALID,0,VALID,97.4577,VALID,0,VALID,19.2319,VALID,114,VALID,0.730859,
2009-12-07, 01:11:04,VALID,917.758,VALID,0,VALID,97.4501,VALID,0,VALID,19.2723,VALID,114,VALID,0.709766,
2009-12-07, 01:12:04,VALID,917.714,VALID,0,VALID,97.4806,VALID,0,VALID,19.2918,VALID,114,VALID,0.577734,
2009-12-07, 01:13:04,VALID,917.73,VALID,0,VALID,97.473,VALID,0,VALID,19.3113,VALID,114,VALID,0.603516,
2009-12-07, 01:14:04,VALID,917.691,VALID,0,VALID,97.4425,VALID,0,VALID,19.2918,VALID,114,VALID,0.430859,
2009-12-07, 01:15:04,VALID,917.707,VALID,0,VALID,97.4349,VALID,0,VALID,19.2709,VALID,114,VALID,0.441406,
2009-12-07, 01:16:04,VALID,917.674,VALID,0,VALID,97.412,VALID,0,VALID,19.2918,VALID,114,VALID,0.434375,
2009-12-07, 01:17:04,VALID,917.671,VALID,0,VALID,97.3891,VALID,0,VALID,19.2918,VALID,114,VALID,0.560547,
2009-12-07, 01:18:04,VALID,917.685,VALID,0,VALID,97.3815,VALID,0,VALID,19.2514,VALID,114,VALID,0.511328,
2009-12-07, 01:19:04,VALID,917.669,VALID,0,VALID,97.3815,VALID,0,VALID,19.2723,VALID,114,VALID,0.511719,
2009-12-07, 01:20:04,VALID,917.644,VALID,0,VALID,97.3815,VALID,0,VALID,19.2334,VALID,114,VALID,0.392188,
2009-12-07, 01:21:04,VALID,917.639,VALID,0,VALID,97.3586,VALID,0,VALID,19.1929,VALID,114,VALID,0.579687,
2009-12-07, 01:22:04,VALID,917.63,VALID,0,VALID,97.3815,VALID,0,VALID,19.2334,VALID,114,VALID,0.569922,
2009-12-07, 01:23:04,VALID,917.618,VALID,0,VALID,97.3891,VALID,0,VALID,19.2139,VALID,114,VALID,0.594531,
2009-12-07, 01:24:04,VALID,917.61,VALID,0,VALID,97.4273,VALID,0,VALID,19.2319,VALID,114,VALID,0.570703,
2009-12-07, 01:25:04,VALID,917.613,VALID,0,VALID,97.4349,VALID,0,VALID,19.2124,VALID,114,VALID,0.460547,
2009-12-07, 01:26:04,VALID,917.593,VALID,0,VALID,97.4044,VALID,0,VALID,19.2334,VALID,114,VALID,0.558984,
2009-12-07, 01:27:04,VALID,917.571,VALID,0,VALID,97.4349,VALID,0,VALID,19.2124,VALID,114,VALID,0.539453,
2009-12-07, 01:28:04,VALID,917.551,VALID,0,VALID,97.4273,VALID,0,VALID,19.2334,VALID,114,VALID,0.467187,
2009-12-07, 01:29:04,VALID,917.541,VALID,0,VALID,97.4806,VALID,0,VALID,19.2334,VALID,114,VALID,0.492969,
2009-12-07, 01:30:04,VALID,917.534,VALID,0,VALID,97.4425,VALID,0,VALID,19.2334,VALID,114,VALID,0.429688,
2009-12-07, 01:31:04,VALID,917.531,VALID,0,VALID,97.412,VALID,0,VALID,19.2124,VALID,114,VALID,0.325781,
2009-12-07, 01:32:04,VALID,917.502,VALID,0,VALID,97.4501,VALID,0,VALID,19.2334,VALID,114,VALID,0.430469,
2009-12-07, 01:33:04,VALID,917.493,VALID,0,VALID,97.4425,VALID,0,VALID,19.2319,VALID,114,VALID,0.161328,
2009-12-07, 01:34:04,VALID,917.471,VALID,0,VALID,97.4349,VALID,0,VALID,19.2514,VALID,114,VALID,0,
2009-12-07, 01:35:04,VALID,917.474,VALID,0,VALID,97.4425,VALID,0,VALID,19.2528,VALID,114,VALID,0,
2009-12-07, 01:36:04,VALID,917.434,VALID,0,VALID,97.412,VALID,0,VALID,19.2528,VALID,114,VALID,0.107813,
2009-12-07, 01:37:04,VALID,917.436,VALID,0,VALID,97.4196,VALID,0,VALID,19.2528,VALID,114,VALID,0.171875,
2009-12-07, 01:38:04,VALID,917.454,VALID,0,VALID,97.4044,VALID,0.107441,VALID,19.2319,VALID,114,VALID,0.00742187,
2009-12-07, 01:39:04,VALID,917.459,VALID,0,VALID,97.3891,VALID,0,VALID,19.2528,VALID,114,VALID,0,
2009-12-07, 01:40:04,VALID,917.444,VALID,0,VALID,97.3891,VALID,0,VALID,19.2334,VALID,114,VALID,0,
2009-12-07, 01:41:04,VALID,917.421,VALID,0,VALID,97.3586,VALID,0,VALID,19.1929,VALID,114,VALID,0.246094,
2009-12-07, 01:42:04,VALID,917.443,VALID,0,VALID,97.3358,VALID,0,VALID,19.2139,VALID,114,VALID,0.264453,
2009-12-07, 01:43:04,VALID,917.44,VALID,0,VALID,97.351,VALID,0,VALID,19.1749,VALID,114,VALID,0.317578,
2009-12-07, 01:44:04,VALID,917.385,VALID,0,VALID,97.3586,VALID,0,VALID,19.1749,VALID,114,VALID,0.367188,
2009-12-07, 01:45:04,VALID,917.425,VALID,0,VALID,97.3739,VALID,0,VALID,19.1749,VALID,114,VALID,0.455469,
2009-12-07, 01:46:04,VALID,917.396,VALID,0,VALID,97.3968,VALID,0,VALID,19.2139,VALID,114,VALID,0.254297,
2009-12-07, 01:47:04,VALID,917.405,VALID,0,VALID,97.3891,VALID,0,VALID,19.2139,VALID,114,VALID,0.00273437,
2009-12-07, 01:48:04,VALID,917.389,VALID,0,VALID,97.3968,VALID,0,VALID,19.1929,VALID,114,VALID,0,
2009-12-07, 01:49:04,VALID,917.423,VALID,0,VALID,97.3968,VALID,0,VALID,19.1929,VALID,114,VALID,0,
2009-12-07, 01:50:04,VALID,917.364,VALID,0,VALID,97.3968,VALID,0,VALID,19.2124,VALID,114,VALID,0,
2009-12-07, 01:51:04,VALID,917.361,VALID,0,VALID,97.3968,VALID,0,VALID,19.2528,VALID,114,VALID,0,
2009-12-07, 01:52:04,VALID,917.37,VALID,0,VALID,97.3891,VALID,0,VALID,19.2723,VALID,114,VALID,0.239844,
2009-12-07, 01:53:04,VALID,917.362,VALID,0,VALID,97.4044,VALID,0,VALID,19.2723,VALID,114,VALID,0,
2009-12-07, 01:54:04,VALID,917.34,VALID,0,VALID,97.4349,VALID,0,VALID,19.2918,VALID,114,VALID,0.250391,
2009-12-07, 01:55:04,VALID,917.338,VALID,0,VALID,97.4044,VALID,0.107441,VALID,19.2709,VALID,114,VALID,0,
2009-12-07, 01:56:04,VALID,917.314,VALID,0,VALID,97.4196,VALID,0,VALID,19.2709,VALID,114,VALID,0,
2009-12-07, 01:57:04,VALID,917.332,VALID,0,VALID,97.3968,VALID,0,VALID,19.2709,VALID,114,VALID,0.317578,
2009-12-07, 01:58:04,VALID,917.317,VALID,0,VALID,97.3815,VALID,0,VALID,19.2904,VALID,114,VALID,0.193359,
2009-12-07, 01:59:04,VALID,917.307,VALID,0,VALID,97.3891,VALID,0,VALID,19.2709,VALID,114,VALID,0.171484,
2009-12-07, 02:00:04,VALID,917.307,VALID,0,VALID,97.3968,VALID,0,VALID,19.2918,VALID,114,VALID,0.455859,
2009-12-07, 02:01:04,VALID,917.308,VALID,0,VALID,97.4044,VALID,0,VALID,19.3113,VALID,114,VALID,0.111328,
2009-12-07, 02:02:04,VALID,917.268,VALID,0,VALID,97.3968,VALID,0,VALID,19.2918,VALID,113,VALID,0.0820313,
2009-12-07, 02:03:04,VALID,917.255,VALID,0,VALID,97.412,VALID,0,VALID,19.3113,VALID,114,VALID,0.405859,
2009-12-07, 02:04:04,VALID,917.252,VALID,0,VALID,97.4273,VALID,0,VALID,19.3113,VALID,114,VALID,0.475391,
2009-12-07, 02:05:04,VALID,917.244,VALID,0,VALID,97.4196,VALID,0,VALID,19.3113,VALID,114,VALID,0.261719,
2009-12-07, 02:06:04,VALID,917.239,VALID,0,VALID,97.412,VALID,0,VALID,19.3308,VALID,114,VALID,0.321094,
2009-12-07, 02:07:04,VALID,917.245,VALID,0,VALID,97.3891,VALID,0,VALID,19.3113,VALID,114,VALID,0.610156,
2009-12-07, 02:08:04,VALID,917.225,VALID,0,VALID,97.412,VALID,0,VALID,19.3113,VALID,114,VALID,0.367969,
2009-12-07, 02:09:04,VALID,917.206,VALID,0,VALID,97.3968,VALID,0,VALID,19.3113,VALID,114,VALID,0.310156,
2009-12-07, 02:10:04,VALID,917.203,VALID,0,VALID,97.4196,VALID,0,VALID,19.2918,VALID,114,VALID,0.452344,
2009-12-07, 02:11:04,VALID,917.216,VALID,0,VALID,97.4196,VALID,0,VALID,19.2918,VALID,114,VALID,0.523828,
2009-12-07, 02:12:04,VALID,917.194,VALID,0,VALID,97.4273,VALID,0,VALID,19.2918,VALID,113,VALID,0.291016,
2009-12-07, 02:13:04,VALID,917.214,VALID,0,VALID,97.4577,VALID,0,VALID,19.2918,VALID,114,VALID,0.430469,
2009-12-07, 02:14:04,VALID,917.207,VALID,0,VALID,97.4654,VALID,0,VALID,19.2918,VALID,114,VALID,0.0597656,
2009-12-07, 02:15:04,VALID,917.212,VALID,0,VALID,97.4654,VALID,0,VALID,19.3113,VALID,114,VALID,0.320313,
2009-12-07, 02:16:04,VALID,917.217,VALID,0,VALID,97.473,VALID,0,VALID,19.2918,VALID,114,VALID,0.613672,
2009-12-07, 02:17:04,VALID,917.221,VALID,0,VALID,97.4501,VALID,0,VALID,19.2723,VALID,114,VALID,0.535937,
2009-12-07, 02:18:04,VALID,917.231,VALID,0,VALID,97.4577,VALID,0,VALID,19.2514,VALID,114,VALID,0.634766,
2009-12-07, 02:19:04,VALID,917.21,VALID,0,VALID,97.473,VALID,0,VALID,19.2528,VALID,114,VALID,0.492969,
2009-12-07, 02:20:04,VALID,917.212,VALID,0,VALID,97.4882,VALID,0,VALID,19.2723,VALID,114,VALID,0.586328,
2009-12-07, 02:21:04,VALID,917.23,VALID,0,VALID,97.4959,VALID,0,VALID,19.2528,VALID,114,VALID,0.460547,
2009-12-07, 02:22:04,VALID,917.207,VALID,0,VALID,97.5035,VALID,0,VALID,19.2723,VALID,114,VALID,0.429297,
2009-12-07, 02:23:04,VALID,917.207,VALID,0,VALID,97.5187,VALID,0.107441,VALID,19.2514,VALID,114,VALID,0.274609,
2009-12-07, 02:24:04,VALID,917.193,VALID,0,VALID,97.5111,VALID,0,VALID,19.2723,VALID,114,VALID,0.351172,
2009-12-07, 02:25:04,VALID,917.182,VALID,0,VALID,97.5111,VALID,0,VALID,19.2723,VALID,114,VALID,0.416406,
2009-12-07, 02:26:04,VALID,917.201,VALID,0,VALID,97.5187,VALID,0,VALID,19.2528,VALID,114,VALID,0.560547,
2009-12-07, 02:27:04,VALID,917.199,VALID,0,VALID,97.534,VALID,0,VALID,19.2723,VALID,114,VALID,0.300781,
2009-12-07, 02:28:04,VALID,917.211,VALID,0,VALID,97.5111,VALID,0,VALID,19.2723,VALID,114,VALID,0.5875,
2009-12-07, 02:29:04,VALID,917.174,VALID,0,VALID,97.5111,VALID,0,VALID,19.2528,VALID,114,VALID,0.423047,
2009-12-07, 02:30:04,VALID,917.207,VALID,0,VALID,97.534,VALID,0,VALID,19.2528,VALID,114,VALID,0.232812,
2009-12-07, 02:31:04,VALID,917.182,VALID,0,VALID,97.5569,VALID,0,VALID,19.2514,VALID,114,VALID,0.415625,
2009-12-07, 02:32:04,VALID,917.18,VALID,0,VALID,97.5416,VALID,0,VALID,19.2514,VALID,114,VALID,0.335156,
2009-12-07, 02:33:04,VALID,917.163,VALID,0,VALID,97.5416,VALID,0,VALID,19.2723,VALID,114,VALID,0.272656,
2009-12-07, 02:34:04,VALID,917.158,VALID,0,VALID,97.5111,VALID,0,VALID,19.2528,VALID,114,VALID,0.546484,
2009-12-07, 02:35:04,VALID,917.174,VALID,0,VALID,97.5187,VALID,0,VALID,19.2514,VALID,114,VALID,0.589063,
2009-12-07, 02:36:04,VALID,917.167,VALID,0,VALID,97.5111,VALID,0,VALID,19.2528,VALID,114,VALID,0.596484,
2009-12-07, 02:37:04,VALID,917.161,VALID,0,VALID,97.5035,VALID,0,VALID,19.2723,VALID,114,VALID,0.673437,
2009-12-07, 02:38:04,VALID,917.162,VALID,0,VALID,97.5111,VALID,0,VALID,19.2723,VALID,114,VALID,0.823828,
2009-12-07, 02:39:04,VALID,917.157,VALID,0,VALID,97.4882,VALID,0,VALID,19.2723,VALID,114,VALID,0.677344,
2009-12-07, 02:40:04,VALID,917.183,VALID,0,VALID,97.4882,VALID,0,VALID,19.2918,VALID,114,VALID,0.574219,
2009-12-07, 02:41:04,VALID,917.147,VALID,0,VALID,97.4577,VALID,0,VALID,19.2723,VALID,114,VALID,0.765625,
2009-12-07, 02:42:04,VALID,917.179,VALID,0,VALID,97.4425,VALID,0,VALID,19.2918,VALID,114,VALID,0.43125,
2009-12-07, 02:43:04,VALID,917.138,VALID,0,VALID,97.4196,VALID,0,VALID,19.2514,VALID,114,VALID,0.56875,
2009-12-07, 02:44:04,VALID,917.161,VALID,0,VALID,97.4044,VALID,0,VALID,19.2723,VALID,114,VALID,0.582422,
2009-12-07, 02:45:04,VALID,917.141,VALID,0,VALID,97.3968,VALID,0,VALID,19.2334,VALID,114,VALID,0.574219,
2009-12-07, 02:46:04,VALID,917.122,VALID,0,VALID,97.3815,VALID,0,VALID,19.2334,VALID,114,VALID,0.646094,
2009-12-07, 02:47:04,VALID,917.107,VALID,0,VALID,97.3586,VALID,0,VALID,19.2334,VALID,114,VALID,0.565234,
2009-12-07, 02:48:04,VALID,917.121,VALID,0,VALID,97.351,VALID,0,VALID,19.1929,VALID,114,VALID,0.370703,
2009-12-07, 02:49:04,VALID,917.075,VALID,0,VALID,97.3205,VALID,0,VALID,19.2139,VALID,114,VALID,0.15,
2009-12-07, 02:50:04,VALID,917.066,VALID,0,VALID,97.3205,VALID,0,VALID,19.1944,VALID,114,VALID,0.539453,
2009-12-07, 02:51:04,VALID,917.101,VALID,0,VALID,97.2977,VALID,0,VALID,19.1944,VALID,114,VALID,0.374219,
2009-12-07, 02:52:04,VALID,917.099,VALID,0,VALID,97.2672,VALID,0,VALID,19.1539,VALID,114,VALID,0.334766,
2009-12-07, 02:53:04,VALID,917.061,VALID,0,VALID,97.29,VALID,0.107441,VALID,19.1344,VALID,114,VALID,0.555078,
2009-12-07, 02:54:04,VALID,917.067,VALID,0,VALID,97.2672,VALID,0,VALID,19.1344,VALID,114,VALID,0.589063,
2009-12-07, 02:55:04,VALID,917.065,VALID,0,VALID,97.2748,VALID,0,VALID,19.1149,VALID,114,VALID,0.562109,
2009-12-07, 02:56:04,VALID,917.028,VALID,0,VALID,97.2595,VALID,0,VALID,19.1164,VALID,114,VALID,0.692187,
2009-12-07, 02:57:04,VALID,917.059,VALID,0,VALID,97.2519,VALID,0,VALID,19.0969,VALID,114,VALID,0.703516,
2009-12-07, 02:58:04,VALID,917.056,VALID,0,VALID,97.29,VALID,0,VALID,19.1178,VALID,114,VALID,0.689062,
2009-12-07, 02:59:04,VALID,917.067,VALID,0,VALID,97.351,VALID,0.107441,VALID,19.0969,VALID,114,VALID,0.744922,
2009-12-07, 03:00:04,VALID,917.068,VALID,0,VALID,97.2824,VALID,0,VALID,19.0774,VALID,114,VALID,0.617969,
2009-12-07, 03:01:04,VALID,917.081,VALID,0,VALID,97.3358,VALID,0,VALID,19.0969,VALID,114,VALID,0.712109,
2009-12-07, 03:02:04,VALID,917.076,VALID,0,VALID,97.29,VALID,0,VALID,19.0969,VALID,114,VALID,0.647266,
2009-12-07, 03:03:04,VALID,917.093,VALID,0,VALID,97.2824,VALID,0,VALID,19.0579,VALID,114,VALID,0.701172,
2009-12-07, 03:04:04,VALID,917.082,VALID,0,VALID,97.3358,VALID,0,VALID,19.0774,VALID,114,VALID,0.80625,
2009-12-07, 03:05:04,VALID,917.076,VALID,0,VALID,97.3281,VALID,0,VALID,19.0369,VALID,114,VALID,0.955859,
2009-12-07, 03:06:04,VALID,917.098,VALID,0,VALID,97.3586,VALID,0,VALID,19.0969,VALID,114,VALID,0.855469,
2009-12-07, 03:07:04,VALID,917.084,VALID,0,VALID,97.4044,VALID,0,VALID,19.0954,VALID,114,VALID,0.580469,
2009-12-07, 03:08:04,VALID,917.073,VALID,0,VALID,97.3815,VALID,0,VALID,19.0969,VALID,114,VALID,0.533203,
2009-12-07, 03:09:04,VALID,917.1,VALID,0,VALID,97.3663,VALID,0,VALID,19.0774,VALID,114,VALID,0.750391,
2009-12-07, 03:10:04,VALID,917.078,VALID,0,VALID,97.3891,VALID,0,VALID,19.0969,VALID,114,VALID,0.771484,
2009-12-07, 03:11:04,VALID,917.075,VALID,0,VALID,97.3586,VALID,0,VALID,19.0564,VALID,114,VALID,0.505859,
2009-12-07, 03:12:04,VALID,917.085,VALID,0,VALID,97.3739,VALID,0,VALID,19.0579,VALID,114,VALID,0.598828,
2009-12-07, 03:13:04,VALID,917.084,VALID,0,VALID,97.3739,VALID,0,VALID,19.0189,VALID,114,VALID,0.620703,
2009-12-07, 03:14:04,VALID,917.039,VALID,0,VALID,97.3968,VALID,0,VALID,19.0189,VALID,114,VALID,0.689062,
2009-12-07, 03:15:04,VALID,917.031,VALID,0,VALID,97.4044,VALID,0,VALID,19.0189,VALID,114,VALID,0.656641,
2009-12-07, 03:16:04,VALID,917.01,VALID,0,VALID,97.412,VALID,0,VALID,19.0384,VALID,114,VALID,0.669531,
2009-12-07, 03:17:04,VALID,917.011,VALID,0,VALID,97.4577,VALID,0,VALID,19.0189,VALID,114,VALID,0.626172,
2009-12-07, 03:18:04,VALID,916.999,VALID,0,VALID,97.4654,VALID,0,VALID,19.0384,VALID,114,VALID,0.582422,
2009-12-07, 03:19:04,VALID,916.998,VALID,0,VALID,97.473,VALID,0,VALID,19.0384,VALID,114,VALID,0.508203,
2009-12-07, 03:20:04,VALID,916.968,VALID,0,VALID,97.4501,VALID,0,VALID,19.0384,VALID,114,VALID,0.452344,
2009-12-07, 03:21:04,VALID,916.997,VALID,0,VALID,97.3586,VALID,0.107441,VALID,18.9785,VALID,114,VALID,0.523047,
2009-12-07, 03:22:04,VALID,916.988,VALID,0,VALID,97.3586,VALID,0.107441,VALID,18.9395,VALID,114,VALID,0.198437,
2009-12-07, 03:23:04,VALID,916.97,VALID,0,VALID,97.4654,VALID,0,VALID,18.959,VALID,114,VALID,0.414453,
2009-12-07, 03:24:04,VALID,916.943,VALID,0,VALID,97.5111,VALID,0,VALID,18.9785,VALID,114,VALID,0.603516,
2009-12-07, 03:25:04,VALID,916.963,VALID,0,VALID,97.5569,VALID,0.107441,VALID,19.0175,VALID,114,VALID,0.766406,
2009-12-07, 03:26:04,VALID,916.983,VALID,0,VALID,97.5569,VALID,0.107441,VALID,19.0759,VALID,114,VALID,0.607422,
2009-12-07, 03:27:04,VALID,916.964,VALID,0,VALID,97.5492,VALID,0.107441,VALID,19.0369,VALID,114,VALID,0.641406,
2009-12-07, 03:28:04,VALID,916.912,VALID,0,VALID,97.534,VALID,0,VALID,19.0564,VALID,114,VALID,0.616406,
2009-12-07, 03:29:04,VALID,916.943,VALID,0,VALID,97.5111,VALID,0.107441,VALID,19.0369,VALID,114,VALID,0.722656,
2009-12-07, 03:30:04,VALID,916.927,VALID,0,VALID,97.534,VALID,0,VALID,19.0579,VALID,114,VALID,0.894141,
2009-12-07, 03:31:04,VALID,916.914,VALID,0,VALID,97.534,VALID,0,VALID,19.0579,VALID,114,VALID,0.866406,
2009-12-07, 03:32:04,VALID,916.885,VALID,0,VALID,97.5569,VALID,0,VALID,19.0969,VALID,114,VALID,0.808594,
2009-12-07, 03:33:04,VALID,916.899,VALID,0,VALID,97.5264,VALID,0,VALID,19.0774,VALID,114,VALID,0.80625,
2009-12-07, 03:34:04,VALID,916.877,VALID,0,VALID,97.4882,VALID,0,VALID,19.0579,VALID,114,VALID,0.763672,
2009-12-07, 03:35:04,VALID,916.874,VALID,0,VALID,97.5111,VALID,0,VALID,19.0774,VALID,114,VALID,0.959375,
2009-12-07, 03:36:04,VALID,916.866,VALID,0,VALID,97.5264,VALID,0,VALID,19.0774,VALID,114,VALID,0.861328,
2009-12-07, 03:37:04,VALID,916.89,VALID,0,VALID,97.5264,VALID,0,VALID,19.0774,VALID,114,VALID,0.908984,
2009-12-07, 03:38:04,VALID,916.899,VALID,0,VALID,97.5035,VALID,0,VALID,19.0774,VALID,114,VALID,0.964453,
2009-12-07, 03:39:04,VALID,916.888,VALID,0,VALID,97.4882,VALID,0,VALID,19.0579,VALID,114,VALID,0.900391,
2009-12-07, 03:40:04,VALID,916.855,VALID,0,VALID,97.4959,VALID,0,VALID,19.0384,VALID,114,VALID,0.853125,
2009-12-07, 03:41:04,VALID,916.872,VALID,0,VALID,97.5264,VALID,0,VALID,19.0579,VALID,114,VALID,0.928516,
2009-12-07, 03:42:04,VALID,916.874,VALID,0,VALID,97.534,VALID,0,VALID,19.0774,VALID,114,VALID,0.898828,
2009-12-07, 03:43:04,VALID,916.847,VALID,0,VALID,97.473,VALID,0,VALID,19.0579,VALID,114,VALID,0.789844,
2009-12-07, 03:44:04,VALID,916.859,VALID,0,VALID,97.4959,VALID,0,VALID,19.0579,VALID,114,VALID,0.805078,
2009-12-07, 03:45:04,VALID,916.855,VALID,0,VALID,97.4501,VALID,0,VALID,19.0189,VALID,114,VALID,0.777734,
2009-12-07, 03:46:04,VALID,916.861,VALID,0,VALID,97.4425,VALID,0,VALID,18.9994,VALID,114,VALID,0.721484,